Latest Weather Observations for Campbelltown

IDN60801

Issued at 6:32 am EST Wednesday 28 June 2017 (issued every 30 minutes, with the page automatically refreshed every 10 minutes)

About weather observations | Map of weather stations | Latest weather observations for NSW | Other Formats
Station Details ID: 068257 Name: CAMPBELLTOWN (MOUNT ANNAN) Lat: -34.06 Lon: 150.77 Height: 112.0 m
Data from the previous 72 hours. | See also: Recent months at Campbelltown
Date/Time
EST
Temp
°C
App
Temp
°C
Dew
Point
°C
Rel
Hum
%
Delta-T
°C
Wind Press
QNH
hPa
Press
MSL
hPa
Rain since
9am
mm
Dir  Spd
km/h
Gust
km/h
Spd
kts
Gust
kts
28/06:30am 7.4 5.6 7.3 99 0.0 SSW 6 9 3 5 - - 0.0
28/06:00am 7.8 7.3 7.7 99 0.0 CALM 0 0 0 0 - - 0.0
28/05:30am 8.0 7.1 7.9 99 0.0 SSW 2 6 1 3 - - 0.0
28/05:00am 8.4 6.9 8.3 99 0.0 S 6 9 3 5 - - 0.0
28/04:30am 8.2 6.6 8.1 99 0.0 SSW 6 9 3 5 - - 0.0
28/04:00am 7.8 7.3 7.7 99 0.0 CALM 0 0 0 0 - - 0.0
28/03:30am 7.6 7.0 7.5 99 0.0 CALM 0 0 0 0 - - 0.0
28/03:00am 7.0 6.3 6.9 99 0.0 CALM 0 0 0 0 - - 0.0
28/02:30am 6.7 5.9 6.6 99 0.0 CALM 0 0 0 0 - - 0.0
28/02:00am 7.2 6.5 7.1 99 0.0 CALM 0 0 0 0 - - 0.0
28/01:30am 7.3 6.7 7.2 99 0.0 CALM 0 0 0 0 - - 0.0
28/01:00am 7.8 7.3 7.7 99 0.0 CALM 0 0 0 0 - - 0.0
28/12:30am 7.8 7.3 7.7 99 0.0 CALM 0 0 0 0 - - 0.0
28/12:00am 7.8 7.3 7.7 99 0.0 CALM 0 0 0 0 - - 0.0
 
Date/Time
EST
Temp
°C
App
Temp
°C
Dew
Point
°C
Rel
Hum
%
Delta-T
°C
Wind Press
QNH
hPa
Press
MSL
hPa
Rain since
9am
mm
Dir  Spd
km/h
Gust
km/h
Spd
kts
Gust
kts
27/11:30pm 8.0 7.5 7.9 99 0.0 CALM 0 0 0 0 - - 0.0
27/11:00pm 8.0 7.5 7.9 99 0.0 CALM 0 0 0 0 - - 0.0
27/10:30pm 8.0 7.5 7.9 99 0.0 CALM 0 0 0 0 - - 0.0
27/10:00pm 7.8 7.2 7.5 98 0.1 CALM 0 0 0 0 - - 0.0
27/09:30pm 7.9 7.3 7.6 98 0.1 CALM 0 0 0 0 - - 0.0
27/09:00pm 8.2 7.7 7.9 98 0.1 CALM 0 0 0 0 - - 0.0
27/08:30pm 8.2 7.7 7.8 97 0.2 CALM 0 0 0 0 - - 0.0
27/08:00pm 8.8 8.4 8.4 97 0.2 CALM 0 0 0 0 - - 0.0
27/07:30pm 8.9 8.6 8.5 97 0.2 CALM 0 0 0 0 - - 0.0
27/07:00pm 9.2 8.8 8.4 95 0.4 CALM 0 4 0 2 - - 0.0
27/06:30pm 9.9 9.6 8.8 93 0.5 CALM 0 0 0 0 - - 0.0
27/06:00pm 10.0 9.7 8.6 91 0.7 CALM 0 0 0 0 - - 0.0
27/05:30pm 10.7 10.4 8.8 88 0.9 CALM 0 0 0 0 - - 0.0
27/05:00pm 11.6 11.3 8.8 83 1.4 CALM 0 0 0 0 - - 0.0
27/04:30pm 13.2 13.2 9.8 80 1.8 CALM 0 0 0 0 - - 0.0
27/04:00pm 13.9 13.9 9.9 77 2.1 CALM 0 0 0 0 - - 0.0
27/03:30pm 14.5 14.2 8.7 68 2.9 CALM 0 2 0 1 - - 0.0
27/03:00pm 15.2 14.8 8.4 64 3.5 CALM 0 0 0 0 - - 0.0
27/02:30pm 14.8 14.0 8.3 65 3.3 NNE 2 7 1 4 - - 0.0
27/02:00pm 14.8 14.4 8.3 65 3.3 CALM 0 6 0 3 - - 0.0
27/01:30pm 15.2 14.3 7.7 61 3.8 N 2 7 1 4 - - 0.0
27/01:00pm 15.0 13.8 8.0 63 3.5 NNW 4 7 2 4 - - 0.0
27/12:30pm 15.0 13.4 8.0 63 3.5 WSW 6 7 3 4 - - 0.0
27/12:00pm 14.1 12.9 7.9 66 3.1 SW 4 9 2 5 - - 0.0
27/11:30am 13.0 11.3 7.5 69 2.7 SW 6 9 3 5 - - 0.0
27/11:00am 12.0 9.9 6.7 70 2.5 SW 7 9 4 5 - - 0.0
27/10:30am 11.6 9.4 6.1 69 2.6 SW 7 11 4 6 - - 0.0
27/10:00am 10.2 8.1 6.5 78 1.7 SW 7 11 4 6 - - 0.0
27/09:30am 8.5 6.4 6.0 84 1.1 SW 6 7 3 4 - - 0.0
27/09:00am 7.7 5.5 5.5 86 1.0 SSW 6 7 3 4 - - 0.0
27/08:30am 5.6 4.6 5.5 99 0.0 CALM 0 0 0 0 - - 0.0
27/08:00am 3.7 2.3 3.6 99 0.0 CALM 0 0 0 0 - - 0.0
27/07:30am 2.7 1.1 2.6 99 0.0 CALM 0 2 0 1 - - 0.0
27/07:00am 2.5 0.9 2.2 98 0.1 CALM 0 0 0 0 - - 0.0
27/06:30am 2.5 0.9 2.2 98 0.1 CALM 0 6 0 3 - - 0.0
27/06:00am 2.6 0.6 2.3 98 0.1 S 2 9 1 5 - - 0.0
27/05:30am 3.0 1.4 2.7 98 0.1 CALM 0 0 0 0 - - 0.0
27/05:00am 3.3 1.8 3.0 98 0.1 CALM 0 0 0 0 - - 0.0
27/04:30am 3.4 1.9 3.1 98 0.1 CALM 0 0 0 0 - - 0.0
27/04:00am 3.1 1.5 2.7 97 0.2 CALM 0 7 0 4 - - 0.0
27/03:30am 2.9 0.5 2.3 96 0.2 SSW 4 7 2 4 - - 0.0
27/03:00am 3.2 0.4 2.3 94 0.4 SSW 6 9 3 5 - - 0.0
27/02:30am 3.6 1.6 2.4 92 0.5 S 2 7 1 4 - - 0.0
27/02:00am 4.2 1.6 3.0 92 0.5 S 6 7 3 4 - - 0.0
27/01:30am 4.5 3.0 2.8 89 0.7 CALM 0 0 0 0 - - 0.0
27/01:00am 6.0 3.5 3.5 84 1.1 S 6 9 3 5 - - 0.0
27/12:30am 6.7 3.7 3.9 82 1.2 S 9 13 5 7 - - 0.0
27/12:00am 7.1 4.1 4.2 82 1.3 SSW 9 13 5 7 - - 0.0
 
Date/Time
EST
Temp
°C
App
Temp
°C
Dew
Point
°C
Rel
Hum
%
Delta-T
°C
Wind Press
QNH
hPa
Press
MSL
hPa
Rain since
9am
mm
Dir  Spd
km/h
Gust
km/h
Spd
kts
Gust
kts
26/11:30pm 6.2 3.7 4.5 89 0.7 SSW 7 11 4 6 - - 0.0
26/11:00pm 6.1 4.8 4.3 88 0.8 CALM 0 0 0 0 - - 0.0
26/10:30pm 7.0 5.0 4.3 83 1.2 S 4 7 2 4 - - 0.0
26/10:00pm 8.4 6.0 5.3 81 1.4 SSW 7 11 4 6 - - 0.0
26/09:30pm 7.3 5.9 5.3 87 0.9 SSW 2 7 1 4 - - 0.0
26/09:00pm 8.5 6.2 5.8 83 1.2 SSW 7 9 4 5 - - 0.0
26/08:30pm 8.3 6.3 6.1 86 1.0 S 6 9 3 5 - - 0.0
26/08:00pm 8.0 5.9 6.0 87 0.9 S 6 7 3 4 - - 0.0
26/07:30pm 7.3 6.1 4.8 84 1.1 CALM 0 0 0 0 - - 0.0
26/07:00pm 7.7 6.2 5.0 83 1.2 SSW 2 7 1 4 - - 0.0
26/06:30pm 7.5 5.8 4.1 79 1.5 S 2 6 1 3 - - 0.0
26/06:00pm 9.0 7.8 4.4 73 2.0 CALM 0 6 0 3 - - 0.0
26/05:30pm 9.9 8.6 4.3 68 2.5 CALM 0 0 0 0 - - 0.0
26/05:00pm 11.9 9.8 3.7 57 3.7 SE 4 7 2 4 - - 0.0
26/04:30pm 14.2 11.6 3.4 48 4.9 WSW 6 7 3 4 - - 0.0
26/04:00pm 17.0 14.0 1.0 34 7.1 WNW 6 7 3 4 - - 0.0
26/03:30pm 17.4 14.5 1.4 34 7.2 WSW 6 11 3 6 - - 0.0
26/03:00pm 17.6 14.7 1.2 33 7.3 W 6 11 3 6 - - 0.0
26/02:30pm 17.7 14.5 0.8 32 7.5 WNW 7 13 4 7 - - 0.0
26/02:00pm 17.3 14.2 0.0 31 7.5 NW 6 13 3 7 - - 0.0
26/01:30pm 17.1 13.6 1.1 34 7.1 W 9 13 5 7 - - 0.0
26/01:00pm 16.8 13.8 1.7 36 6.8 WNW 7 11 4 6 - - 0.0
26/12:30pm 16.1 12.3 1.8 38 6.4 W 11 17 6 9 - - 0.0
26/12:00pm 15.7 12.3 1.8 39 6.2 WSW 9 15 5 8 - - 0.0
26/11:30am 15.5 12.3 3.3 44 5.6 SW 9 20 5 11 - - 0.0
26/11:00am 14.5 11.2 4.8 52 4.5 W 11 15 6 8 - - 0.0
26/10:30am 13.7 10.9 5.3 57 4.0 W 9 17 5 9 - - 0.0
26/10:00am 12.6 10.0 6.0 64 3.1 SW 9 15 5 8 - - 0.0
26/09:30am 11.5 9.5 6.4 71 2.4 WSW 6 11 3 6 - - 0.0
26/09:00am 9.6 9.1 8.0 90 0.8 CALM 0 0 0 0 - - 0.0
26/08:30am 6.3 5.4 6.2 99 0.0 CALM 0 0 0 0 - - 0.0
26/08:00am 5.1 4.0 5.0 99 0.0 CALM 0 0 0 0 - - 0.0
26/07:30am 3.0 1.1 2.9 99 0.0 S 2 7 1 4 - - 0.0
26/07:00am 3.2 0.6 3.1 99 0.0 S 6 7 3 4 - - 0.0
26/06:30am 3.0 1.5 2.9 99 0.0 CALM 0 0 0 0 - - 0.0
26/06:00am 2.6 0.6 2.5 99 0.0 S 2 6 1 3 - - 0.0
26/05:30am 3.4 0.6 3.3 99 0.0 S 7 9 4 5 - - 0.0
26/05:00am 2.4 0.4 2.3 99 0.0 SW 2 7 1 4 - - 0.0
26/04:30am 2.1 0.4 2.0 99 0.0 CALM 0 0 0 0 - - 0.0
26/04:00am 2.2 0.5 1.9 98 0.1 CALM 0 0 0 0 - - 0.0
26/03:30am 2.1 0.0 1.8 98 0.1 NE 2 6 1 3 - - 0.0
26/03:00am 2.4 0.7 2.0 97 0.2 CALM 0 0 0 0 - - 0.0
26/02:30am 2.7 1.0 2.1 96 0.2 CALM 0 0 0 0 - - 0.0
26/02:00am 3.4 1.9 2.8 96 0.2 CALM 0 0 0 0 - - 0.0
26/01:30am 4.2 1.5 3.8 97 0.2 NE 7 9 4 5 - - 0.0
26/01:00am 4.3 1.6 3.9 97 0.2 NE 7 9 4 5 - - 0.0
26/12:30am 3.7 0.9 3.1 96 0.2 NE 7 9 4 5 - - 0.0
26/12:00am 3.7 2.2 3.0 95 0.3 CALM 0 0 0 0 - - 0.0
 
Date/Time
EST
Temp
°C
App
Temp
°C
Dew
Point
°C
Rel
Hum
%
Delta-T
°C
Wind Press
QNH
hPa
Press
MSL
hPa
Rain since
9am
mm
Dir  Spd
km/h
Gust
km/h
Spd
kts
Gust
kts
25/11:30pm 3.6 1.7 2.6 93 0.4 NNE 2 7 1 4 - - 0.0
25/11:00pm 4.5 3.1 3.3 92 0.5 CALM 0 0 0 0 - - 0.0
25/10:30pm 4.7 3.3 3.4 91 0.5 CALM 0 0 0 0 - - 0.0
25/10:00pm 5.0 3.2 3.5 90 0.6 NE 2 7 1 4 - - 0.0
25/09:30pm 5.1 2.9 3.4 89 0.7 NE 4 7 2 4 - - 0.0
25/09:00pm 5.8 3.3 4.0 88 0.8 NE 6 7 3 4 - - 0.0
25/08:30pm 5.7 4.3 3.5 86 0.9 CALM 0 0 0 0 - - 0.0
25/08:00pm 6.7 5.3 3.7 81 1.3 CALM 0 0 0 0 - - 0.0
25/07:30pm 7.7 6.3 3.6 75 1.8 CALM 0 0 0 0 - - 0.0
25/07:00pm 8.5 6.3 3.1 69 2.3 NE 4 7 2 4 - - 0.0
25/06:30pm 10.5 8.1 2.4 57 3.5 S 4 7 2 4 - - 0.0
25/06:00pm 12.8 9.1 2.4 49 4.6 SSW 11 17 6 9 - - 0.0
25/05:30pm 13.2 10.1 1.5 45 5.0 SSW 7 9 4 5 - - 0.0
25/05:00pm 14.7 10.4 1.3 40 5.8 WSW 13 30 7 16 - - 0.0
25/04:30pm 15.3 11.8 1.4 39 6.1 WSW 9 15 5 8 - - 0.0
25/04:00pm 16.3 12.0 0.8 35 6.8 SW 13 22 7 12 - - 0.0
25/03:30pm 16.8 11.7 0.9 34 7.0 WSW 17 26 9 14 - - 0.0
25/03:00pm 17.3 12.2 0.5 32 7.4 WSW 17 28 9 15 - - 0.0
25/02:30pm 17.3 12.2 0.5 32 7.4 WSW 17 37 9 20 - - 0.0
25/02:00pm 17.3 12.1 0.0 31 7.5 WSW 17 32 9 17 - - 0.0
25/01:30pm 17.2 12.3 -0.5 30 7.6 W 15 28 8 15 - - 0.0
25/01:00pm 17.4 13.3 -0.3 30 7.6 W 11 22 6 12 - - 0.0
25/12:30pm 16.6 12.4 -0.6 31 7.3 WSW 11 24 6 13 - - 0.0
25/12:00pm 15.9 11.5 0.1 34 6.8 WSW 13 26 7 14 - - 0.0
25/11:30am 15.6 11.7 1.0 37 6.4 WNW 11 22 6 12 - - 0.0
25/11:00am 14.3 10.8 1.2 41 5.7 WNW 9 17 5 9 - - 0.0
25/10:30am 13.2 9.7 3.3 51 4.4 NNW 11 17 6 9 - - 0.0
25/10:00am 12.6 9.8 3.0 52 4.3 NW 7 13 4 7 - - 0.0
25/09:30am 10.5 8.3 6.1 74 2.1 N 7 11 4 6 - - 0.0
25/09:00am 8.8 8.5 8.7 99 0.0 CALM 0 0 0 0 - - 0.2
25/08:30am 4.2 2.9 4.1 99 0.0 CALM 0 0 0 0 - - 0.0
25/08:00am 2.2 0.5 2.1 99 0.0 CALM 0 0 0 0 - - 0.0
25/07:30am 0.8 -1.1 0.7 99 0.0 CALM 0 0 0 0 - - 0.0
25/07:00am 0.8 -1.1 0.7 99 0.0 CALM 0 0 0 0 - - 0.0

Other Formats:

Comma delimited format used in spreadsheet applications
http://www.bom.gov.au/fwo/IDN60801/IDN60801.94757.axf

JavaScript Object Notation format (JSON) in row-major order
http://www.bom.gov.au/fwo/IDN60801/IDN60801.94757.json